owner,sensor,date,latitude,longitude,sea_surface_height_above_sea_level,qcFlag 
COMPS,ioos:station:USF.COMPS:SHP:1,2009-08-01T00:00:00Z,30.0600,-84.2910,-0.356,1111122 
COMPS,ioos:station:USF.COMPS:SHP:1,2009-08-01T00:06:00Z,30.0600,-84.2910,-0.347,1111122 
COMPS,ioos:station:USF.COMPS:SHP:1,2009-08-01T00:12:00Z,30.0600,-84.2910,-0.331,1111122 
COMPS,ioos:station:USF.COMPS:SHP:1,2009-08-01T00:18:00Z,30.0600,-84.2910,-0.312,1111122 
COMPS,ioos:station:USF.COMPS:SHP:1,2009-08-01T00:24:00Z,30.0600,-84.2910,-0.293,1111122 
COMPS,ioos:station:USF.COMPS:SHP:1,2009-08-01T00:30:00Z,30.0600,-84.2910,-0.272,1111122 
COMPS,ioos:station:USF.COMPS:SHP:1,2009-08-01T00:36:00Z,30.0600,-84.2910,-0.254,1111122 
COMPS,ioos:station:USF.COMPS:SHP:1,2009-08-01T00:42:00Z,30.0600,-84.2910,-0.243,1111122 
COMPS,ioos:station:USF.COMPS:SHP:1,2009-08-01T00:48:00Z,30.0600,-84.2910,-0.237,1111122 
COMPS,ioos:station:USF.COMPS:SHP:1,2009-08-01T00:54:00Z,30.0600,-84.2910,-0.229,1111122 
COMPS,ioos:station:USF.COMPS:SHP:1,2009-08-01T01:00:00Z,30.0600,-84.2910,-0.215,1111122 
COMPS,ioos:station:USF.COMPS:SHP:1,2009-08-01T01:06:00Z,30.0600,-84.2910,-0.203,1111122 
COMPS,ioos:station:USF.COMPS:SHP:1,2009-08-01T01:12:00Z,30.0600,-84.2910,-0.193,1111122 
COMPS,ioos:station:USF.COMPS:SHP:1,2009-08-01T01:18:00Z,30.0600,-84.2910,-0.18,1111122 
COMPS,ioos:station:USF.COMPS:SHP:1,2009-08-01T01:24:00Z,30.0600,-84.2910,-0.162,1111122 
COMPS,ioos:station:USF.COMPS:SHP:1,2009-08-01T01:30:00Z,30.0600,-84.2910,-0.136,1111122 
COMPS,ioos:station:USF.COMPS:SHP:1,2009-08-01T01:36:00Z,30.0600,-84.2910,-0.117,1111122 
COMPS,ioos:station:USF.COMPS:SHP:1,2009-08-01T01:42:00Z,30.0600,-84.2910,-0.103,1111122 
COMPS,ioos:station:USF.COMPS:SHP:1,2009-08-01T01:48:00Z,30.0600,-84.2910,-0.091,1111122 
COMPS,ioos:station:USF.COMPS:SHP:1,2009-08-01T01:54:00Z,30.0600,-84.2910,-0.082,1111122 
COMPS,ioos:station:USF.COMPS:SHP:1,2009-08-01T02:00:00Z,30.0600,-84.2910,-0.078,1111122 
COMPS,ioos:station:USF.COMPS:SHP:1,2009-08-01T02:06:00Z,30.0600,-84.2910,-0.069,1111122 
COMPS,ioos:station:USF.COMPS:SHP:1,2009-08-01T02:12:00Z,30.0600,-84.2910,-0.046,1111122 
COMPS,ioos:station:USF.COMPS:SHP:1,2009-08-01T02:18:00Z,30.0600,-84.2910,-0.026,1111122 
COMPS,ioos:station:USF.COMPS:SHP:1,2009-08-01T02:24:00Z,30.0600,-84.2910,-0.013,1111122 
COMPS,ioos:station:USF.COMPS:SHP:1,2009-08-01T02:30:00Z,30.0600,-84.2910,0.001,1111122 
COMPS,ioos:station:USF.COMPS:SHP:1,2009-08-01T02:36:00Z,30.0600,-84.2910,0.01,1111122 
COMPS,ioos:station:USF.COMPS:SHP:1,2009-08-01T02:42:00Z,30.0600,-84.2910,0.019,1111122 
COMPS,ioos:station:USF.COMPS:SHP:1,2009-08-01T02:48:00Z,30.0600,-84.2910,0.028,1111122 
COMPS,ioos:station:USF.COMPS:SHP:1,2009-08-01T02:54:00Z,30.0600,-84.2910,0.046,1111122 
COMPS,ioos:station:USF.COMPS:SHP:1,2009-08-01T03:00:00Z,30.0600,-84.2910,0.062,1111122 
COMPS,ioos:station:USF.COMPS:SHP:1,2009-08-01T03:06:00Z,30.0600,-84.2910,0.068,1111122 
COMPS,ioos:station:USF.COMPS:SHP:1,2009-08-01T03:12:00Z,30.0600,-84.2910,0.085,1111122 
COMPS,ioos:station:USF.COMPS:SHP:1,2009-08-01T03:18:00Z,30.0600,-84.2910,0.096,1111122 
COMPS,ioos:station:USF.COMPS:SHP:1,2009-08-01T03:24:00Z,30.0600,-84.2910,0.098,1111122 
COMPS,ioos:station:USF.COMPS:SHP:1,2009-08-01T03:30:00Z,30.0600,-84.2910,0.112,1111122 
COMPS,ioos:station:USF.COMPS:SHP:1,2009-08-01T03:36:00Z,30.0600,-84.2910,0.119,1111122 
COMPS,ioos:station:USF.COMPS:SHP:1,2009-08-01T03:42:00Z,30.0600,-84.2910,0.126,1111122 
COMPS,ioos:station:USF.COMPS:SHP:1,2009-08-01T03:48:00Z,30.0600,-84.2910,0.13,1111122 
COMPS,ioos:station:USF.COMPS:SHP:1,2009-08-01T03:54:00Z,30.0600,-84.2910,0.124,1111122 
COMPS,ioos:station:USF.COMPS:SHP:1,2009-08-01T04:00:00Z,30.0600,-84.2910,0.126,1111122 
COMPS,ioos:station:USF.COMPS:SHP:1,2009-08-01T04:06:00Z,30.0600,-84.2910,0.138,1111122 
COMPS,ioos:station:USF.COMPS:SHP:1,2009-08-01T04:12:00Z,30.0600,-84.2910,0.15,1111122 
COMPS,ioos:station:USF.COMPS:SHP:1,2009-08-01T04:18:00Z,30.0600,-84.2910,0.159,1111122 
COMPS,ioos:station:USF.COMPS:SHP:1,2009-08-01T04:24:00Z,30.0600,-84.2910,0.16,1111122 
COMPS,ioos:station:USF.COMPS:SHP:1,2009-08-01T04:30:00Z,30.0600,-84.2910,0.161,1111122 
COMPS,ioos:station:USF.COMPS:SHP:1,2009-08-01T04:36:00Z,30.0600,-84.2910,0.168,1111122 
COMPS,ioos:station:USF.COMPS:SHP:1,2009-08-01T04:42:00Z,30.0600,-84.2910,0.165,1111122 
COMPS,ioos:station:USF.COMPS:SHP:1,2009-08-01T04:48:00Z,30.0600,-84.2910,0.165,1111122 
COMPS,ioos:station:USF.COMPS:SHP:1,2009-08-01T04:54:00Z,30.0600,-84.2910,0.162,1111122 
COMPS,ioos:station:USF.COMPS:SHP:1,2009-08-01T05:00:00Z,30.0600,-84.2910,0.165,1111122 
COMPS,ioos:station:USF.COMPS:SHP:1,2009-08-01T05:06:00Z,30.0600,-84.2910,0.171,1111122 
COMPS,ioos:station:USF.COMPS:SHP:1,2009-08-01T05:12:00Z,30.0600,-84.2910,0.177,1111122 
COMPS,ioos:station:USF.COMPS:SHP:1,2009-08-01T05:18:00Z,30.0600,-84.2910,0.188,1111122 
COMPS,ioos:station:USF.COMPS:SHP:1,2009-08-01T05:24:00Z,30.0600,-84.2910,0.186,1111122 
COMPS,ioos:station:USF.COMPS:SHP:1,2009-08-01T05:30:00Z,30.0600,-84.2910,0.182,1111122 
COMPS,ioos:station:USF.COMPS:SHP:1,2009-08-01T05:36:00Z,30.0600,-84.2910,0.169,1111122 
COMPS,ioos:station:USF.COMPS:SHP:1,2009-08-01T05:42:00Z,30.0600,-84.2910,0.18,1111122 
COMPS,ioos:station:USF.COMPS:SHP:1,2009-08-01T05:48:00Z,30.0600,-84.2910,0.193,1111122 
COMPS,ioos:station:USF.COMPS:SHP:1,2009-08-01T05:54:00Z,30.0600,-84.2910,0.198,1111122 
COMPS,ioos:station:USF.COMPS:SHP:1,2009-08-01T06:00:00Z,30.0600,-84.2910,0.198,1111122 
COMPS,ioos:station:USF.COMPS:SHP:1,2009-08-01T06:06:00Z,30.0600,-84.2910,0.19,1111122 
COMPS,ioos:station:USF.COMPS:SHP:1,2009-08-01T06:12:00Z,30.0600,-84.2910,0.181,1111122 
COMPS,ioos:station:USF.COMPS:SHP:1,2009-08-01T06:18:00Z,30.0600,-84.2910,0.181,1111122 
COMPS,ioos:station:USF.COMPS:SHP:1,2009-08-01T06:24:00Z,30.0600,-84.2910,0.178,1111122 
COMPS,ioos:station:USF.COMPS:SHP:1,2009-08-01T06:30:00Z,30.0600,-84.2910,0.174,1111122 
COMPS,ioos:station:USF.COMPS:SHP:1,2009-08-01T06:36:00Z,30.0600,-84.2910,0.178,1111122 
COMPS,ioos:station:USF.COMPS:SHP:1,2009-08-01T06:42:00Z,30.0600,-84.2910,0.174,1111122 
COMPS,ioos:station:USF.COMPS:SHP:1,2009-08-01T06:48:00Z,30.0600,-84.2910,0.168,1111122 
COMPS,ioos:station:USF.COMPS:SHP:1,2009-08-01T06:54:00Z,30.0600,-84.2910,0.162,1111122 
COMPS,ioos:station:USF.COMPS:SHP:1,2009-08-01T07:00:00Z,30.0600,-84.2910,0.163,1111122 
COMPS,ioos:station:USF.COMPS:SHP:1,2009-08-01T07:06:00Z,30.0600,-84.2910,0.165,1111122 
COMPS,ioos:station:USF.COMPS:SHP:1,2009-08-01T07:12:00Z,30.0600,-84.2910,0.162,1111122 
COMPS,ioos:station:USF.COMPS:SHP:1,2009-08-01T07:18:00Z,30.0600,-84.2910,0.15,1111122 
COMPS,ioos:station:USF.COMPS:SHP:1,2009-08-01T07:24:00Z,30.0600,-84.2910,0.147,1111122 
COMPS,ioos:station:USF.COMPS:SHP:1,2009-08-01T07:30:00Z,30.0600,-84.2910,0.147,1111122 
COMPS,ioos:station:USF.COMPS:SHP:1,2009-08-01T07:36:00Z,30.0600,-84.2910,0.144,1111122 
COMPS,ioos:station:USF.COMPS:SHP:1,2009-08-01T07:42:00Z,30.0600,-84.2910,0.144,1111122 
COMPS,ioos:station:USF.COMPS:SHP:1,2009-08-01T07:48:00Z,30.0600,-84.2910,0.132,1111122 
COMPS,ioos:station:USF.COMPS:SHP:1,2009-08-01T07:54:00Z,30.0600,-84.2910,0.122,1111122 
COMPS,ioos:station:USF.COMPS:SHP:1,2009-08-01T08:00:00Z,30.0600,-84.2910,0.127,1111122 
COMPS,ioos:station:USF.COMPS:SHP:1,2009-08-01T08:06:00Z,30.0600,-84.2910,0.131,1111122 
COMPS,ioos:station:USF.COMPS:SHP:1,2009-08-01T08:12:00Z,30.0600,-84.2910,0.126,1111122 
COMPS,ioos:station:USF.COMPS:SHP:1,2009-08-01T08:18:00Z,30.0600,-84.2910,0.127,1111122 
COMPS,ioos:station:USF.COMPS:SHP:1,2009-08-01T08:24:00Z,30.0600,-84.2910,0.135,1111122 
COMPS,ioos:station:USF.COMPS:SHP:1,2009-08-01T08:30:00Z,30.0600,-84.2910,0.132,1111122 
COMPS,ioos:station:USF.COMPS:SHP:1,2009-08-01T08:36:00Z,30.0600,-84.2910,0.128,1111122 
COMPS,ioos:station:USF.COMPS:SHP:1,2009-08-01T08:42:00Z,30.0600,-84.2910,0.131,1111122 
COMPS,ioos:station:USF.COMPS:SHP:1,2009-08-01T08:48:00Z,30.0600,-84.2910,0.129,1111122 
COMPS,ioos:station:USF.COMPS:SHP:1,2009-08-01T08:54:00Z,30.0600,-84.2910,0.13,1111122 
COMPS,ioos:station:USF.COMPS:SHP:1,2009-08-01T09:00:00Z,30.0600,-84.2910,0.135,1111122 
COMPS,ioos:station:USF.COMPS:SHP:1,2009-08-01T09:06:00Z,30.0600,-84.2910,0.135,1111122 
COMPS,ioos:station:USF.COMPS:SHP:1,2009-08-01T09:12:00Z,30.0600,-84.2910,0.135,1111122 
COMPS,ioos:station:USF.COMPS:SHP:1,2009-08-01T09:18:00Z,30.0600,-84.2910,0.143,1111122 
COMPS,ioos:station:USF.COMPS:SHP:1,2009-08-01T09:24:00Z,30.0600,-84.2910,0.154,1111122 
COMPS,ioos:station:USF.COMPS:SHP:1,2009-08-01T09:30:00Z,30.0600,-84.2910,0.156,1111122 
COMPS,ioos:station:USF.COMPS:SHP:1,2009-08-01T09:36:00Z,30.0600,-84.2910,0.155,1111122 
COMPS,ioos:station:USF.COMPS:SHP:1,2009-08-01T09:42:00Z,30.0600,-84.2910,0.158,1111122 
COMPS,ioos:station:USF.COMPS:SHP:1,2009-08-01T09:48:00Z,30.0600,-84.2910,0.158,1111122 
COMPS,ioos:station:USF.COMPS:SHP:1,2009-08-01T09:54:00Z,30.0600,-84.2910,0.152,1111122 
COMPS,ioos:station:USF.COMPS:SHP:1,2009-08-01T10:00:00Z,30.0600,-84.2910,0.153,1111122 
COMPS,ioos:station:USF.COMPS:SHP:1,2009-08-01T10:06:00Z,30.0600,-84.2910,0.158,1111122 
COMPS,ioos:station:USF.COMPS:SHP:1,2009-08-01T10:12:00Z,30.0600,-84.2910,0.16,1111122 
COMPS,ioos:station:USF.COMPS:SHP:1,2009-08-01T10:18:00Z,30.0600,-84.2910,0.167,1111122 
COMPS,ioos:station:USF.COMPS:SHP:1,2009-08-01T10:24:00Z,30.0600,-84.2910,0.174,1111122 
COMPS,ioos:station:USF.COMPS:SHP:1,2009-08-01T10:30:00Z,30.0600,-84.2910,0.181,1111122 
COMPS,ioos:station:USF.COMPS:SHP:1,2009-08-01T10:36:00Z,30.0600,-84.2910,0.182,1111122 
COMPS,ioos:station:USF.COMPS:SHP:1,2009-08-01T10:42:00Z,30.0600,-84.2910,0.183,1111122 
COMPS,ioos:station:USF.COMPS:SHP:1,2009-08-01T10:48:00Z,30.0600,-84.2910,0.19,1111122 
COMPS,ioos:station:USF.COMPS:SHP:1,2009-08-01T10:54:00Z,30.0600,-84.2910,0.198,1111122 
COMPS,ioos:station:USF.COMPS:SHP:1,2009-08-01T11:00:00Z,30.0600,-84.2910,0.207,1111122 
COMPS,ioos:station:USF.COMPS:SHP:1,2009-08-01T11:06:00Z,30.0600,-84.2910,0.221,1111122 
COMPS,ioos:station:USF.COMPS:SHP:1,2009-08-01T11:12:00Z,30.0600,-84.2910,0.229,1111122 
COMPS,ioos:station:USF.COMPS:SHP:1,2009-08-01T11:18:00Z,30.0600,-84.2910,0.234,1111122 
COMPS,ioos:station:USF.COMPS:SHP:1,2009-08-01T11:24:00Z,30.0600,-84.2910,0.241,1111122 
COMPS,ioos:station:USF.COMPS:SHP:1,2009-08-01T11:30:00Z,30.0600,-84.2910,0.248,1111122 
COMPS,ioos:station:USF.COMPS:SHP:1,2009-08-01T11:36:00Z,30.0600,-84.2910,0.258,1111122 
COMPS,ioos:station:USF.COMPS:SHP:1,2009-08-01T11:42:00Z,30.0600,-84.2910,0.261,1111122 
COMPS,ioos:station:USF.COMPS:SHP:1,2009-08-01T11:48:00Z,30.0600,-84.2910,0.264,1111122 
COMPS,ioos:station:USF.COMPS:SHP:1,2009-08-01T11:54:00Z,30.0600,-84.2910,0.269,1111122 
COMPS,ioos:station:USF.COMPS:SHP:1,2009-08-01T12:00:00Z,30.0600,-84.2910,0.285,1111122 
COMPS,ioos:station:USF.COMPS:SHP:1,2009-08-01T12:06:00Z,30.0600,-84.2910,0.296,1111122 
COMPS,ioos:station:USF.COMPS:SHP:1,2009-08-01T12:12:00Z,30.0600,-84.2910,0.309,1111122 
COMPS,ioos:station:USF.COMPS:SHP:1,2009-08-01T12:18:00Z,30.0600,-84.2910,0.316,1111122 
COMPS,ioos:station:USF.COMPS:SHP:1,2009-08-01T12:24:00Z,30.0600,-84.2910,0.309,1111122 
COMPS,ioos:station:USF.COMPS:SHP:1,2009-08-01T12:30:00Z,30.0600,-84.2910,0.317,1111122 
COMPS,ioos:station:USF.COMPS:SHP:1,2009-08-01T12:36:00Z,30.0600,-84.2910,0.329,1111122 
COMPS,ioos:station:USF.COMPS:SHP:1,2009-08-01T12:42:00Z,30.0600,-84.2910,0.337,1111122 
COMPS,ioos:station:USF.COMPS:SHP:1,2009-08-01T12:48:00Z,30.0600,-84.2910,0.348,1111122 
COMPS,ioos:station:USF.COMPS:SHP:1,2009-08-01T12:54:00Z,30.0600,-84.2910,0.346,1111122 
COMPS,ioos:station:USF.COMPS:SHP:1,2009-08-01T13:00:00Z,30.0600,-84.2910,0.345,1111122 
COMPS,ioos:station:USF.COMPS:SHP:1,2009-08-01T13:06:00Z,30.0600,-84.2910,0.357,1111122 
COMPS,ioos:station:USF.COMPS:SHP:1,2009-08-01T13:12:00Z,30.0600,-84.2910,0.375,1111122 
COMPS,ioos:station:USF.COMPS:SHP:1,2009-08-01T13:18:00Z,30.0600,-84.2910,0.382,1111122 
COMPS,ioos:station:USF.COMPS:SHP:1,2009-08-01T13:24:00Z,30.0600,-84.2910,0.386,1111122 
COMPS,ioos:station:USF.COMPS:SHP:1,2009-08-01T13:30:00Z,30.0600,-84.2910,0.386,1111122 
COMPS,ioos:station:USF.COMPS:SHP:1,2009-08-01T13:36:00Z,30.0600,-84.2910,0.383,1111122 
COMPS,ioos:station:USF.COMPS:SHP:1,2009-08-01T13:42:00Z,30.0600,-84.2910,0.372,1111122 
COMPS,ioos:station:USF.COMPS:SHP:1,2009-08-01T13:48:00Z,30.0600,-84.2910,0.396,1111122 
COMPS,ioos:station:USF.COMPS:SHP:1,2009-08-01T13:54:00Z,30.0600,-84.2910,0.426,1111122 
COMPS,ioos:station:USF.COMPS:SHP:1,2009-08-01T14:00:00Z,30.0600,-84.2910,0.43,1111122 
COMPS,ioos:station:USF.COMPS:SHP:1,2009-08-01T14:06:00Z,30.0600,-84.2910,0.439,1111122 
COMPS,ioos:station:USF.COMPS:SHP:1,2009-08-01T14:12:00Z,30.0600,-84.2910,0.428,1111122 
COMPS,ioos:station:USF.COMPS:SHP:1,2009-08-01T14:18:00Z,30.0600,-84.2910,0.423,1111122 
COMPS,ioos:station:USF.COMPS:SHP:1,2009-08-01T14:24:00Z,30.0600,-84.2910,0.452,1111122 
COMPS,ioos:station:USF.COMPS:SHP:1,2009-08-01T14:30:00Z,30.0600,-84.2910,0.459,1111122 
COMPS,ioos:station:USF.COMPS:SHP:1,2009-08-01T14:36:00Z,30.0600,-84.2910,0.452,1111122 
COMPS,ioos:station:USF.COMPS:SHP:1,2009-08-01T14:42:00Z,30.0600,-84.2910,0.464,1111122 
COMPS,ioos:station:USF.COMPS:SHP:1,2009-08-01T14:48:00Z,30.0600,-84.2910,0.473,1111122 
COMPS,ioos:station:USF.COMPS:SHP:1,2009-08-01T14:54:00Z,30.0600,-84.2910,0.465,1111122 
COMPS,ioos:station:USF.COMPS:SHP:1,2009-08-01T15:00:00Z,30.0600,-84.2910,0.487,1111122 
COMPS,ioos:station:USF.COMPS:SHP:1,2009-08-01T15:06:00Z,30.0600,-84.2910,0.489,1111122 
COMPS,ioos:station:USF.COMPS:SHP:1,2009-08-01T15:12:00Z,30.0600,-84.2910,0.477,1111122 
COMPS,ioos:station:USF.COMPS:SHP:1,2009-08-01T15:18:00Z,30.0600,-84.2910,0.48,1111122 
COMPS,ioos:station:USF.COMPS:SHP:1,2009-08-01T15:24:00Z,30.0600,-84.2910,0.49,1111122 
COMPS,ioos:station:USF.COMPS:SHP:1,2009-08-01T15:30:00Z,30.0600,-84.2910,0.484,1111122 
COMPS,ioos:station:USF.COMPS:SHP:1,2009-08-01T15:36:00Z,30.0600,-84.2910,0.473,1111122 
COMPS,ioos:station:USF.COMPS:SHP:1,2009-08-01T15:42:00Z,30.0600,-84.2910,0.476,1111122 
COMPS,ioos:station:USF.COMPS:SHP:1,2009-08-01T15:48:00Z,30.0600,-84.2910,0.451,1111122 
COMPS,ioos:station:USF.COMPS:SHP:1,2009-08-01T15:54:00Z,30.0600,-84.2910,0.438,1111122 
COMPS,ioos:station:USF.COMPS:SHP:1,2009-08-01T16:00:00Z,30.0600,-84.2910,0.442,1111122 
COMPS,ioos:station:USF.COMPS:SHP:1,2009-08-01T16:06:00Z,30.0600,-84.2910,0.432,1111122 
COMPS,ioos:station:USF.COMPS:SHP:1,2009-08-01T16:12:00Z,30.0600,-84.2910,0.403,1111122 
COMPS,ioos:station:USF.COMPS:SHP:1,2009-08-01T16:18:00Z,30.0600,-84.2910,0.386,1111122 
COMPS,ioos:station:USF.COMPS:SHP:1,2009-08-01T16:24:00Z,30.0600,-84.2910,0.387,1111122 
COMPS,ioos:station:USF.COMPS:SHP:1,2009-08-01T16:30:00Z,30.0600,-84.2910,0.35,1111122 
COMPS,ioos:station:USF.COMPS:SHP:1,2009-08-01T16:36:00Z,30.0600,-84.2910,0.321,1111122 
COMPS,ioos:station:USF.COMPS:SHP:1,2009-08-01T16:42:00Z,30.0600,-84.2910,0.317,1111122 
COMPS,ioos:station:USF.COMPS:SHP:1,2009-08-01T16:48:00Z,30.0600,-84.2910,0.313,1111122 
COMPS,ioos:station:USF.COMPS:SHP:1,2009-08-01T16:54:00Z,30.0600,-84.2910,0.296,1111122 
COMPS,ioos:station:USF.COMPS:SHP:1,2009-08-01T17:00:00Z,30.0600,-84.2910,0.278,1111122 
COMPS,ioos:station:USF.COMPS:SHP:1,2009-08-01T17:06:00Z,30.0600,-84.2910,0.264,1111122 
COMPS,ioos:station:USF.COMPS:SHP:1,2009-08-01T17:12:00Z,30.0600,-84.2910,0.248,1111122 
COMPS,ioos:station:USF.COMPS:SHP:1,2009-08-01T17:18:00Z,30.0600,-84.2910,0.229,1111122 
COMPS,ioos:station:USF.COMPS:SHP:1,2009-08-01T17:24:00Z,30.0600,-84.2910,0.216,1111122 
COMPS,ioos:station:USF.COMPS:SHP:1,2009-08-01T17:30:00Z,30.0600,-84.2910,0.208,1111122 
COMPS,ioos:station:USF.COMPS:SHP:1,2009-08-01T17:36:00Z,30.0600,-84.2910,0.195,1111122 
COMPS,ioos:station:USF.COMPS:SHP:1,2009-08-01T17:42:00Z,30.0600,-84.2910,0.183,1111122 
COMPS,ioos:station:USF.COMPS:SHP:1,2009-08-01T17:48:00Z,30.0600,-84.2910,0.171,1111122 
COMPS,ioos:station:USF.COMPS:SHP:1,2009-08-01T17:54:00Z,30.0600,-84.2910,0.156,1111122 
COMPS,ioos:station:USF.COMPS:SHP:1,2009-08-01T18:00:00Z,30.0600,-84.2910,0.146,1111122 
COMPS,ioos:station:USF.COMPS:SHP:1,2009-08-01T18:06:00Z,30.0600,-84.2910,0.157,1111122 
COMPS,ioos:station:USF.COMPS:SHP:1,2009-08-01T18:12:00Z,30.0600,-84.2910,0.133,1111122 
COMPS,ioos:station:USF.COMPS:SHP:1,2009-08-01T18:18:00Z,30.0600,-84.2910,0.092,1111122 
COMPS,ioos:station:USF.COMPS:SHP:1,2009-08-01T18:24:00Z,30.0600,-84.2910,0.075,1111122 
COMPS,ioos:station:USF.COMPS:SHP:1,2009-08-01T18:30:00Z,30.0600,-84.2910,0.055,1111122 
COMPS,ioos:station:USF.COMPS:SHP:1,2009-08-01T18:36:00Z,30.0600,-84.2910,0.042,1111122 
COMPS,ioos:station:USF.COMPS:SHP:1,2009-08-01T18:42:00Z,30.0600,-84.2910,0.032,1111122 
COMPS,ioos:station:USF.COMPS:SHP:1,2009-08-01T18:48:00Z,30.0600,-84.2910,0.016,1111122 
COMPS,ioos:station:USF.COMPS:SHP:1,2009-08-01T18:54:00Z,30.0600,-84.2910,-0.002,1111122 
COMPS,ioos:station:USF.COMPS:SHP:1,2009-08-01T19:00:00Z,30.0600,-84.2910,-0.021,1111122 
COMPS,ioos:station:USF.COMPS:SHP:1,2009-08-01T19:06:00Z,30.0600,-84.2910,-0.037,1111122 
COMPS,ioos:station:USF.COMPS:SHP:1,2009-08-01T19:12:00Z,30.0600,-84.2910,-0.056,1111122 
COMPS,ioos:station:USF.COMPS:SHP:1,2009-08-01T19:18:00Z,30.0600,-84.2910,-0.073,1111122 
COMPS,ioos:station:USF.COMPS:SHP:1,2009-08-01T19:24:00Z,30.0600,-84.2910,-0.089,1111122 
COMPS,ioos:station:USF.COMPS:SHP:1,2009-08-01T19:30:00Z,30.0600,-84.2910,-0.11,1111122 
COMPS,ioos:station:USF.COMPS:SHP:1,2009-08-01T19:36:00Z,30.0600,-84.2910,-0.129,1111122 
COMPS,ioos:station:USF.COMPS:SHP:1,2009-08-01T19:42:00Z,30.0600,-84.2910,-0.145,1111122 
COMPS,ioos:station:USF.COMPS:SHP:1,2009-08-01T19:48:00Z,30.0600,-84.2910,-0.155,1111122 
COMPS,ioos:station:USF.COMPS:SHP:1,2009-08-01T19:54:00Z,30.0600,-84.2910,-0.17,1111122 
COMPS,ioos:station:USF.COMPS:SHP:1,2009-08-01T20:00:00Z,30.0600,-84.2910,-0.182,1111122 
COMPS,ioos:station:USF.COMPS:SHP:1,2009-08-01T20:06:00Z,30.0600,-84.2910,-0.195,1111122 
COMPS,ioos:station:USF.COMPS:SHP:1,2009-08-01T20:12:00Z,30.0600,-84.2910,-0.211,1111122 
COMPS,ioos:station:USF.COMPS:SHP:1,2009-08-01T20:18:00Z,30.0600,-84.2910,-0.233,1111122 
COMPS,ioos:station:USF.COMPS:SHP:1,2009-08-01T20:24:00Z,30.0600,-84.2910,-0.254,1111122 
COMPS,ioos:station:USF.COMPS:SHP:1,2009-08-01T20:30:00Z,30.0600,-84.2910,-0.27,1111122 
COMPS,ioos:station:USF.COMPS:SHP:1,2009-08-01T20:36:00Z,30.0600,-84.2910,-0.286,1111122 
COMPS,ioos:station:USF.COMPS:SHP:1,2009-08-01T20:42:00Z,30.0600,-84.2910,-0.303,1111122 
COMPS,ioos:station:USF.COMPS:SHP:1,2009-08-01T20:48:00Z,30.0600,-84.2910,-0.313,1111122 
COMPS,ioos:station:USF.COMPS:SHP:1,2009-08-01T20:54:00Z,30.0600,-84.2910,-0.322,1111122 
COMPS,ioos:station:USF.COMPS:SHP:1,2009-08-01T21:00:00Z,30.0600,-84.2910,-0.334,1111122 
COMPS,ioos:station:USF.COMPS:SHP:1,2009-08-01T21:06:00Z,30.0600,-84.2910,-0.348,1111122 
COMPS,ioos:station:USF.COMPS:SHP:1,2009-08-01T21:12:00Z,30.0600,-84.2910,-0.363,1111122 
COMPS,ioos:station:USF.COMPS:SHP:1,2009-08-01T21:18:00Z,30.0600,-84.2910,-0.377,1111122 
COMPS,ioos:station:USF.COMPS:SHP:1,2009-08-01T21:24:00Z,30.0600,-84.2910,-0.39,1111122 
COMPS,ioos:station:USF.COMPS:SHP:1,2009-08-01T21:30:00Z,30.0600,-84.2910,-0.403,1111122 
COMPS,ioos:station:USF.COMPS:SHP:1,2009-08-01T21:36:00Z,30.0600,-84.2910,-0.415,1111122 
COMPS,ioos:station:USF.COMPS:SHP:1,2009-08-01T21:42:00Z,30.0600,-84.2910,-0.424,1111122 
COMPS,ioos:station:USF.COMPS:SHP:1,2009-08-01T21:48:00Z,30.0600,-84.2910,-0.43,1111122 
COMPS,ioos:station:USF.COMPS:SHP:1,2009-08-01T21:54:00Z,30.0600,-84.2910,-0.439,1111122 
COMPS,ioos:station:USF.COMPS:SHP:1,2009-08-01T22:00:00Z,30.0600,-84.2910,-0.449,1111122 
COMPS,ioos:station:USF.COMPS:SHP:1,2009-08-01T22:06:00Z,30.0600,-84.2910,-0.457,1111122 
COMPS,ioos:station:USF.COMPS:SHP:1,2009-08-01T22:12:00Z,30.0600,-84.2910,-0.467,1111122 
COMPS,ioos:station:USF.COMPS:SHP:1,2009-08-01T22:18:00Z,30.0600,-84.2910,-0.478,1111122 
COMPS,ioos:station:USF.COMPS:SHP:1,2009-08-01T22:24:00Z,30.0600,-84.2910,-0.488,1111122 
COMPS,ioos:station:USF.COMPS:SHP:1,2009-08-01T22:30:00Z,30.0600,-84.2910,-0.494,1111122 
COMPS,ioos:station:USF.COMPS:SHP:1,2009-08-01T22:36:00Z,30.0600,-84.2910,-0.502,1111122 
COMPS,ioos:station:USF.COMPS:SHP:1,2009-08-01T22:42:00Z,30.0600,-84.2910,-0.511,1111122 
COMPS,ioos:station:USF.COMPS:SHP:1,2009-08-01T22:48:00Z,30.0600,-84.2910,-0.519,1111122 
COMPS,ioos:station:USF.COMPS:SHP:1,2009-08-01T22:54:00Z,30.0600,-84.2910,-0.526,1111122 
COMPS,ioos:station:USF.COMPS:SHP:1,2009-08-01T23:00:00Z,30.0600,-84.2910,-0.531,1111122 
COMPS,ioos:station:USF.COMPS:SHP:1,2009-08-01T23:06:00Z,30.0600,-84.2910,-0.53,1111122 
COMPS,ioos:station:USF.COMPS:SHP:1,2009-08-01T23:12:00Z,30.0600,-84.2910,-0.528,1111122 
COMPS,ioos:station:USF.COMPS:SHP:1,2009-08-01T23:18:00Z,30.0600,-84.2910,-0.526,1111122 
COMPS,ioos:station:USF.COMPS:SHP:1,2009-08-01T23:24:00Z,30.0600,-84.2910,-0.522,1111122 
COMPS,ioos:station:USF.COMPS:SHP:1,2009-08-01T23:30:00Z,30.0600,-84.2910,-0.52,1111122 
COMPS,ioos:station:USF.COMPS:SHP:1,2009-08-01T23:36:00Z,30.0600,-84.2910,-0.519,1111122 
COMPS,ioos:station:USF.COMPS:SHP:1,2009-08-01T23:42:00Z,30.0600,-84.2910,-0.518,1111122 
COMPS,ioos:station:USF.COMPS:SHP:1,2009-08-01T23:48:00Z,30.0600,-84.2910,-0.513,1111122 
COMPS,ioos:station:USF.COMPS:SHP:1,2009-08-01T23:54:00Z,30.0600,-84.2910,-0.508,1111122 
COMPS,ioos:station:USF.COMPS:SHP:1,2009-08-02T00:00:00Z,30.0600,-84.2910,-0.501,1111122 
COMPS,ioos:station:USF.COMPS:SHP:1,2009-08-02T00:06:00Z,30.0600,-84.2910,-0.491,1111122 
COMPS,ioos:station:USF.COMPS:SHP:1,2009-08-02T00:12:00Z,30.0600,-84.2910,-0.479,1111122 
COMPS,ioos:station:USF.COMPS:SHP:1,2009-08-02T00:18:00Z,30.0600,-84.2910,-0.467,1111122 
COMPS,ioos:station:USF.COMPS:SHP:1,2009-08-02T00:24:00Z,30.0600,-84.2910,-0.454,1111122 
COMPS,ioos:station:USF.COMPS:SHP:1,2009-08-02T00:30:00Z,30.0600,-84.2910,-0.441,1111122 
COMPS,ioos:station:USF.COMPS:SHP:1,2009-08-02T00:36:00Z,30.0600,-84.2910,-0.429,1111122 
COMPS,ioos:station:USF.COMPS:SHP:1,2009-08-02T00:42:00Z,30.0600,-84.2910,-0.419,1111122 
COMPS,ioos:station:USF.COMPS:SHP:1,2009-08-02T00:48:00Z,30.0600,-84.2910,-0.408,1111122 
COMPS,ioos:station:USF.COMPS:SHP:1,2009-08-02T00:54:00Z,30.0600,-84.2910,-0.397,1111122 
COMPS,ioos:station:USF.COMPS:SHP:1,2009-08-02T01:00:00Z,30.0600,-84.2910,-0.385,1111122 
COMPS,ioos:station:USF.COMPS:SHP:1,2009-08-02T01:06:00Z,30.0600,-84.2910,-0.37,1111122 
COMPS,ioos:station:USF.COMPS:SHP:1,2009-08-02T01:12:00Z,30.0600,-84.2910,-0.353,1111122 
COMPS,ioos:station:USF.COMPS:SHP:1,2009-08-02T01:18:00Z,30.0600,-84.2910,-0.334,1111122 
COMPS,ioos:station:USF.COMPS:SHP:1,2009-08-02T01:24:00Z,30.0600,-84.2910,-0.315,1111122 
COMPS,ioos:station:USF.COMPS:SHP:1,2009-08-02T01:30:00Z,30.0600,-84.2910,-0.296,1111122 
COMPS,ioos:station:USF.COMPS:SHP:1,2009-08-02T01:36:00Z,30.0600,-84.2910,-0.279,1111122 
COMPS,ioos:station:USF.COMPS:SHP:1,2009-08-02T01:42:00Z,30.0600,-84.2910,-0.263,1111122 
COMPS,ioos:station:USF.COMPS:SHP:1,2009-08-02T01:48:00Z,30.0600,-84.2910,-0.249,1111122 
COMPS,ioos:station:USF.COMPS:SHP:1,2009-08-02T01:54:00Z,30.0600,-84.2910,-0.23,1111122 
COMPS,ioos:station:USF.COMPS:SHP:1,2009-08-02T03:00:00Z,30.0600,-84.2910,-0.041,1111122 
COMPS,ioos:station:USF.COMPS:SHP:1,2009-08-02T03:06:00Z,30.0600,-84.2910,-0.022,1111122 
COMPS,ioos:station:USF.COMPS:SHP:1,2009-08-02T03:12:00Z,30.0600,-84.2910,-0.004,1111122 
COMPS,ioos:station:USF.COMPS:SHP:1,2009-08-02T03:18:00Z,30.0600,-84.2910,0.011,1111122 
COMPS,ioos:station:USF.COMPS:SHP:1,2009-08-02T03:24:00Z,30.0600,-84.2910,0.024,1111122 
COMPS,ioos:station:USF.COMPS:SHP:1,2009-08-02T03:30:00Z,30.0600,-84.2910,0.032,1111122 
COMPS,ioos:station:USF.COMPS:SHP:1,2009-08-02T03:36:00Z,30.0600,-84.2910,0.049,1111122 
COMPS,ioos:station:USF.COMPS:SHP:1,2009-08-02T03:42:00Z,30.0600,-84.2910,0.068,1111122 
COMPS,ioos:station:USF.COMPS:SHP:1,2009-08-02T03:48:00Z,30.0600,-84.2910,0.083,1111122 
COMPS,ioos:station:USF.COMPS:SHP:1,2009-08-02T03:54:00Z,30.0600,-84.2910,0.093,1111122 